| time (UTC) | temp C | wind direction | speed KPH | gust KPH | rain 1hr cm | rain 24hr cm | rain mn cm | humidity % | barometer mb |
| 20260507105359 | 8 | 337 | 9.7 | 11.3 | 0.00 | 0.00 | 0.00 | 80 | 1005.7 |
| 20260507103859 | 8 | 337 | 11.3 | 12.9 | 0.00 | 0.00 | 0.00 | 79 | 1005.6 |
| 20260507102359 | 9 | 337 | 11.3 | 11.3 | 0.00 | 0.00 | 0.00 | 80 | 1005.4 |
| 20260507100859 | 8 | 22 | 9.7 | 9.7 | 0.00 | 0.00 | 0.00 | 82 | 1005.2 |
| 20260507095359 | 8 | 315 | 9.7 | 19.3 | 0.00 | 0.00 | 0.00 | 83 | 1005.2 |
| 20260507093859 | 7 | 0 | 6.4 | 9.7 | 0.00 | 0.00 | 0.00 | 83 | 1005.1 |
| 20260507092359 | 8 | 337 | 12.9 | 12.9 | 0.00 | 0.00 | 0.00 | 83 | 1005.1 |
| 20260507090859 | 7 | 337 | 11.3 | 11.3 | 0.00 | 0.00 | 0.00 | 84 | 1004.8 |
| 20260507085400 | 7 | 337 | 8.0 | 11.3 | 0.00 | 0.00 | 0.00 | 83 | 1004.5 |
| 20260507083859 | 8 | 337 | 11.3 | 11.3 | 0.00 | 0.00 | 0.00 | 83 | 1004.2 |
| 20260507082359 | 8 | 337 | 9.7 | 12.9 | 0.00 | 0.00 | 0.00 | 83 | 1004.0 |
| 20260507080859 | 7 | 337 | 8.0 | 12.9 | 0.00 | 0.00 | 0.00 | 84 | 1003.9 |
| 20260507075359 | 7 | 337 | 11.3 | 11.3 | 0.00 | 0.00 | 0.00 | 84 | 1003.9 |
| 20260507073859 | 7 | 22 | 4.8 | 4.8 | 0.00 | 0.00 | 0.00 | 85 | 1003.7 |
| 20260507072359 | 7 | 315 | 8.0 | 12.9 | 0.00 | 0.00 | 0.00 | 85 | 1003.6 |
| 20260507070859 | 7 | 337 | 12.9 | 12.9 | 0.00 | 0.00 | 0.00 | 85 | 1003.5 |
| 20260507065359 | 7 | 337 | 9.7 | 9.7 | 0.00 | 0.00 | 0.00 | 86 | 1003.3 |
| 20260507063859 | 7 | 0 | 3.2 | 9.7 | 0.00 | 0.00 | 0.00 | 85 | 1003.1 |
| 20260507062359 | 7 | 337 | 6.4 | 9.7 | 0.00 | 0.00 | 0.00 | 86 | 1002.8 |
| 20260507060859 | 7 | 337 | 9.7 | 11.3 | 0.00 | 0.00 | 0.00 | 86 | 1002.7 |
| 20260507055359 | 7 | 315 | 6.4 | 9.7 | 0.00 | 0.00 | 0.00 | 86 | 1002.6 |
| 20260507053900 | 7 | 315 | 8.0 | 8.0 | 0.00 | 0.00 | 0.00 | 87 | 1002.6 |
| 20260507052359 | 7 | 0 | 9.7 | 9.7 | 0.00 | 0.00 | 0.00 | 87 | 1002.3 |
| 20260507050900 | 7 | 0 | 4.8 | 9.7 | 0.00 | 0.00 | 0.00 | 88 | 1002.3 |
| 20260507045400 | 7 | 337 | 9.7 | 11.3 | 0.00 | 0.00 | 0.00 | 89 | 1002.2 |
| 20260507043900 | 6 | 337 | 3.2 | 4.8 | 0.00 | 0.00 | 0.00 | 89 | 1002.2 |
| 20260507042400 | 6 | 337 | 4.8 | 8.0 | 0.00 | 0.00 | 0.00 | 89 | 1001.9 |
| 20260507040900 | 6 | 337 | 3.2 | 9.7 | 0.00 | 0.00 | 0.00 | 89 | 1001.6 |
| 20260507035400 | 6 | 337 | 9.7 | 12.9 | 0.00 | 0.05 | 0.00 | 89 | 1001.4 |
| 20260507033900 | 6 | 0 | 9.7 | 9.7 | 0.00 | 0.05 | 0.00 | 88 | 1001.2 |
| 20260507032400 | 6 | 0 | 11.3 | 11.3 | 0.00 | 0.05 | 0.00 | 88 | 1001.1 |
| 20260507030900 | 6 | 0 | 6.4 | 9.7 | 0.00 | 0.05 | 0.00 | 88 | 1000.9 |
| 20260507025400 | 6 | 0 | 6.4 | 11.3 | 0.00 | 0.05 | 0.00 | 88 | 1000.9 |
| 20260507023900 | 6 | 0 | 11.3 | 11.3 | 0.00 | 0.05 | 0.00 | 88 | 1000.8 |
| 20260507022400 | 6 | 337 | 11.3 | 11.3 | 0.00 | 0.05 | 0.00 | 88 | 1000.8 |
| 20260507020900 | 6 | 337 | 8.0 | 11.3 | 0.00 | 0.05 | 0.00 | 88 | 1000.6 |
| 20260507015400 | 6 | 337 | 3.2 | 3.2 | 0.00 | 0.05 | 0.00 | 87 | 1001.1 |
| 20260507013900 | 6 | 315 | 0.0 | 1.6 | 0.00 | 0.05 | 0.00 | 87 | 1001.1 |
| 20260507012400 | 6 | 0 | 0.0 | 1.6 | 0.00 | 0.05 | 0.00 | 86 | 1001.0 |
| 20260507010900 | 6 | 292 | 1.6 | 1.6 | 0.00 | 0.05 | 0.00 | 86 | 1001.1 |
| 20260507005400 | 7 | 270 | 0.0 | 1.6 | 0.00 | 0.05 | 0.00 | 86 | 1001.0 |
| 20260507003900 | 7 | 270 | 0.0 | 0.0 | 0.00 | 0.05 | 0.00 | 85 | 1001.0 |
| 20260507002400 | 7 | 337 | 0.0 | 0.0 | 0.00 | 0.05 | 0.00 | 85 | 1001.1 |
| 20260507000900 | 6 | 0 | 1.6 | 4.8 | 0.00 | 0.05 | 0.00 | 86 | 1000.7 |
| 20260506235400 | 6 | 337 | 4.8 | 4.8 | 0.00 | 0.05 | 0.00 | 86 | 1000.3 |
| 20260506233900 | 7 | 0 | 6.4 | 6.4 | 0.00 | 0.05 | 0.00 | 86 | 1000.1 |
| 20260506232400 | 7 | 0 | 8.0 | 8.0 | 0.00 | 0.05 | 0.00 | 86 | 1000.2 |
| 20260506230900 | 7 | 0 | 3.2 | 3.2 | 0.00 | 0.05 | 0.00 | 86 | 1000.1 |
| 20260506225400 | 7 | 0 | 1.6 | 4.8 | 0.00 | 0.05 | 0.00 | 87 | 1000.2 |
| 20260506223900 | 6 | 315 | 6.4 | 6.4 | 0.00 | 0.05 | 0.00 | 87 | 1000.1 |
| 20260506222400 | 6 | 337 | 6.4 | 6.4 | 0.00 | 0.05 | 0.00 | 86 | 999.7 |
| 20260506220900 | 6 | 0 | 1.6 | 3.2 | 0.00 | 0.05 | 0.00 | 86 | 999.6 |
| 20260506215400 | 6 | 337 | 3.2 | 4.8 | 0.00 | 0.05 | 0.00 | 86 | 999.8 |
| 20260506213900 | 6 | 337 | 6.4 | 8.0 | 0.00 | 0.05 | 0.00 | 85 | 999.7 |
| 20260506212400 | 7 | 337 | 3.2 | 3.2 | 0.00 | 0.05 | 0.00 | 85 | 999.7 |
| 20260506210900 | 7 | 0 | 0.0 | 8.0 | 0.00 | 0.05 | 0.00 | 85 | 999.7 |
| 20260506205400 | 7 | 337 | 0.0 | 1.6 | 0.00 | 0.05 | 0.00 | 84 | 999.4 |
| 20260506203900 | 7 | 22 | 1.6 | 4.8 | 0.00 | 0.05 | 0.00 | 84 | 999.2 |
| 20260506202400 | 7 | 0 | 6.4 | 6.4 | 0.00 | 0.05 | 0.00 | 84 | 999.2 |
| 20260506200900 | 7 | 0 | 4.8 | 4.8 | 0.00 | 0.05 | 0.00 | 84 | 999.0 |
| 20260506195400 | 7 | 337 | 4.8 | 4.8 | 0.00 | 0.05 | 0.00 | 84 | 998.8 |
| 20260506193900 | 7 | 337 | 1.6 | 4.8 | 0.00 | 0.05 | 0.00 | 83 | 998.7 |
| 20260506192401 | 8 | 22 | 0.0 | 0.0 | 0.00 | 0.05 | 0.00 | 82 | 998.7 |
| 20260506190901 | 8 | 0 | 3.2 | 3.2 | 0.00 | 0.05 | 0.00 | 81 | 998.6 |
| 20260506185401 | 8 | 0 | 1.6 | 3.2 | 0.00 | 0.10 | 0.00 | 79 | 998.6 |
| 20260506183901 | 9 | 22 | 0.0 | 0.0 | 0.00 | 0.10 | 0.00 | 77 | 998.4 |
| 20260506182401 | 10 | 0 | 3.2 | 3.2 | 0.00 | 0.10 | 0.00 | 75 | 998.2 |
| 20260506180901 | 11 | 45 | 0.0 | 3.2 | 0.00 | 0.10 | 0.00 | 73 | 998.0 |
| 20260506175401 | 12 | 45 | 0.0 | 1.6 | 0.00 | 0.10 | 0.00 | 73 | 998.1 |
| 20260506173901 | 12 | 45 | 0.0 | 0.0 | 0.00 | 0.10 | 0.00 | 72 | 997.9 |
| 20260506172401 | 12 | 67 | 0.0 | 0.0 | 0.00 | 0.10 | 0.00 | 72 | 997.9 |
| 20260506170901 | 12 | 45 | 1.6 | 1.6 | 0.00 | 0.10 | 0.00 | 71 | 997.8 |
| 20260506165401 | 13 | 67 | 0.0 | 0.0 | 0.00 | 0.10 | 0.00 | 70 | 997.9 |
| 20260506163901 | 13 | 45 | 0.0 | 0.0 | 0.00 | 0.10 | 0.00 | 69 | 997.8 |
| 20260506162401 | 14 | 45 | 6.4 | 6.4 | 0.00 | 0.10 | 0.00 | 71 | 997.9 |
| 20260506160901 | 14 | 45 | 4.8 | 4.8 | 0.00 | 0.10 | 0.00 | 70 | 998.0 |
| 20260506155401 | 14 | 45 | 1.6 | 3.2 | 0.00 | 0.15 | 0.00 | 70 | 998.2 |
| 20260506153901 | 14 | 45 | 1.6 | 1.6 | 0.00 | 0.15 | 0.00 | 70 | 998.2 |
| 20260506152401 | 15 | 45 | 1.6 | 3.2 | 0.00 | 0.15 | 0.00 | 70 | 998.3 |
| 20260506150901 | 15 | 0 | 1.6 | 8.0 | 0.00 | 0.15 | 0.00 | 70 | 998.4 |
| 20260506145401 | 14 | 337 | 3.2 | 3.2 | 0.00 | 0.20 | 0.00 | 70 | 998.6 |
| 20260506143901 | 15 | 0 | 9.7 | 9.7 | 0.00 | 0.20 | 0.00 | 69 | 998.6 |
| 20260506142401 | 16 | 337 | 4.8 | 4.8 | 0.00 | 0.20 | 0.00 | 69 | 998.3 |
| 20260506140901 | 15 | 337 | 8.0 | 8.0 | 0.00 | 0.20 | 0.00 | 69 | 998.4 |
| 20260506135401 | 17 | 22 | 0.0 | 6.4 | 0.00 | 0.20 | 0.00 | 65 | 998.1 |
| 20260506133901 | 17 | 0 | 6.4 | 6.4 | 0.00 | 0.20 | 0.00 | 66 | 997.8 |
| 20260506132401 | 18 | 45 | 3.2 | 4.8 | 0.00 | 0.20 | 0.00 | 63 | 997.7 |
| 20260506130901 | 20 | 22 | 9.7 | 9.7 | 0.00 | 0.20 | 0.00 | 61 | 997.7 |
| 20260506125401 | 17 | 45 | 0.0 | 4.8 | 0.00 | 0.20 | 0.00 | 67 | 997.7 |
| 20260506123901 | 17 | 45 | 11.3 | 11.3 | 0.00 | 0.20 | 0.00 | 68 | 997.5 |
| 20260506122401 | 16 | 45 | 1.6 | 9.7 | 0.00 | 0.20 | 0.00 | 71 | 997.5 |
| 20260506120901 | 16 | 67 | 6.4 | 8.0 | 0.00 | 0.20 | 0.00 | 71 | 997.5 |
| 20260506115401 | 16 | 22 | 0.0 | 0.0 | 0.00 | 0.20 | 0.00 | 71 | 997.6 |
| 20260506113901 | 16 | 45 | 6.4 | 6.4 | 0.00 | 0.20 | 0.00 | 70 | 997.6 |
| 20260506112402 | 16 | 45 | 4.8 | 4.8 | 0.00 | 0.20 | 0.00 | 68 | 997.5 |
| 20260506110901 | 17 | 157 | 0.0 | 0.0 | 0.00 | 0.20 | 0.00 | 64 | 997.5 |